EAG5519 SBSV-SBPJ

Flight info

Callsign EAG5519
Flight time 1h 39m
Altitude 38000
Route ARNOX DCT OBKAR DCT SATGA
Aircraft A20N/M-SDE2E3FGHIRWXY/LB1

Departure

Time 2026-05-04 23:13
Airport Deputado Luiz Eduardo Magalhães International Airport (SBSV)

Arrival

Time 2026-05-05 00:53
Airport Brigadeiro Lysias Rodrigues Airport (SBPJ)
Time Latitude Longitude Altitude Speed Heading
2026-05-04 22:57 -12.91391 -38.33213 43 ft 0 kts 276°
2026-05-04 23:04 -12.91391 -38.33211 43 ft 1 kts 276°
2026-05-04 23:04 -12.91392 -38.33203 16 ft 1 kts 276°
2026-05-04 23:04 -12.91393 -38.33195 16 ft 1 kts 276°
2026-05-04 23:05 -12.91394 -38.33187 59 ft 1 kts 277°
2026-05-04 23:05 -12.91395 -38.33179 51 ft 1 kts 277°
2026-05-04 23:05 -12.91396 -38.33171 43 ft 1 kts 277°
2026-05-04 23:05 -12.91396 -38.33163 43 ft 1 kts 277°
2026-05-04 23:06 -12.91397 -38.33155 43 ft 1 kts 277°
2026-05-04 23:06 -12.91398 -38.33147 42 ft 1 kts 292°
2026-05-04 23:06 -12.91401 -38.33140 41 ft 1 kts 316°
2026-05-04 23:06 -12.91402 -38.33139 41 ft 0 kts 318°
2026-05-04 23:08 -12.91401 -38.33140 41 ft 1 kts 318°
2026-05-04 23:08 -12.91393 -38.33144 42 ft 3 kts 330°
2026-05-04 23:08 -12.91366 -38.33152 43 ft 6 kts 347°
2026-05-04 23:09 -12.91317 -38.33163 43 ft 9 kts 347°
2026-05-04 23:09 -12.91259 -38.33175 43 ft 10 kts 349°
2026-05-04 23:09 -12.91214 -38.33218 43 ft 9 kts 275°
2026-05-04 23:09 -12.91220 -38.33294 43 ft 12 kts 269°
2026-05-04 23:10 -12.91199 -38.33371 41 ft 8 kts 296°
2026-05-04 23:10 -12.91197 -38.33374 41 ft 0 kts 296°
2026-05-04 23:10 -12.91197 -38.33375 41 ft 0 kts 296°
2026-05-04 23:10 -12.91192 -38.33386 43 ft 1 kts 296°
2026-05-04 23:11 -12.91182 -38.33419 43 ft 9 kts 276°
2026-05-04 23:11 -12.91192 -38.33500 43 ft 14 kts 257°
2026-05-04 23:11 -12.91167 -38.33582 43 ft 13 kts 330°
2026-05-04 23:11 -12.91115 -38.33542 41 ft 11 kts 75°
2026-05-04 23:12 -12.91109 -38.33514 43 ft 0 kts 77°
2026-05-04 23:12 -12.91101 -38.33475 42 ft 29 kts 79°
2026-05-04 23:12 -12.91007 -38.33005 47 ft 102 kts 78°
2026-05-04 23:12 -12.90826 -38.32095 46 ft 157 kts 77°
2026-05-04 23:13 -12.90565 -38.30929 446 ft 171 kts 81°
2026-05-04 23:13 -12.90335 -38.29746 1109 ft 164 kts 83°
2026-05-04 23:13 -12.90128 -38.28619 1925 ft 161 kts 84°
2026-05-04 23:13 -12.89915 -38.27432 2414 ft 181 kts 84°
2026-05-04 23:14 -12.89669 -38.26026 2555 ft 228 kts 84°
2026-05-04 23:14 -12.89416 -38.24334 3040 ft 258 kts 86°
2026-05-04 23:14 -12.89607 -38.22499 3850 ft 258 kts 115°
2026-05-04 23:14 -12.90619 -38.21039 5001 ft 253 kts 141°
2026-05-04 23:15 -12.92188 -38.20234 5935 ft 258 kts 167°
2026-05-04 23:15 -12.93995 -38.20286 6808 ft 267 kts 194°
2026-05-04 23:15 -12.95645 -38.21223 7618 ft 280 kts 220°
2026-05-04 23:15 -12.96762 -38.22889 8488 ft 291 kts 246°
2026-05-04 23:16 -12.97327 -38.24924 9332 ft 300 kts 255°
2026-05-04 23:16 -12.97788 -38.27020 10207 ft 305 kts 253°
2026-05-04 23:16 -12.98381 -38.29169 10683 ft 325 kts 250°
2026-05-04 23:16 -12.99165 -38.31428 10977 ft 348 kts 247°
2026-05-04 23:17 -13.00088 -38.33772 11580 ft 358 kts 245°
2026-05-04 23:17 -13.01063 -38.36137 12400 ft 363 kts 245°
2026-05-04 23:17 -13.02061 -38.38535 13214 ft 368 kts 246°
2026-05-04 23:17 -13.02860 -38.41055 13981 ft 376 kts 255°
2026-05-04 23:18 -13.03368 -38.43731 14723 ft 379 kts 258°
2026-05-04 23:18 -13.03857 -38.46404 15460 ft 383 kts 258°
2026-05-04 23:18 -13.04357 -38.49096 16165 ft 387 kts 258°
2026-05-04 23:18 -13.04863 -38.51819 16877 ft 391 kts 258°
2026-05-04 23:19 -13.05372 -38.54566 17619 ft 393 kts 258°
2026-05-04 23:19 -13.05885 -38.57335 18231 ft 399 kts 258°
2026-05-04 23:19 -13.06397 -38.60107 18823 ft 402 kts 259°
2026-05-04 23:19 -13.06926 -38.62970 19467 ft 404 kts 259°
2026-05-04 23:20 -13.07443 -38.65773 20148 ft 405 kts 259°
2026-05-04 23:20 -13.07974 -38.68648 20786 ft 408 kts 259°
2026-05-04 23:20 -13.08503 -38.71520 21307 ft 412 kts 259°
2026-05-04 23:20 -13.09032 -38.74385 21890 ft 414 kts 259°
2026-05-04 23:21 -13.09597 -38.77329 22461 ft 417 kts 259°
2026-05-04 23:21 -13.10173 -38.80252 23009 ft 420 kts 259°
2026-05-04 23:21 -13.10746 -38.83152 23525 ft 422 kts 259°
2026-05-04 23:21 -13.11329 -38.86121 23988 ft 425 kts 259°
2026-05-04 23:22 -13.11910 -38.89094 24429 ft 427 kts 259°
2026-05-04 23:22 -13.12495 -38.92091 24857 ft 429 kts 259°
2026-05-04 23:22 -13.13080 -38.95099 25278 ft 431 kts 259°
2026-05-04 23:22 -13.13665 -38.98113 25687 ft 431 kts 259°
2026-05-04 23:23 -13.14253 -39.01139 26006 ft 434 kts 259°
2026-05-04 23:23 -13.14843 -39.04182 26369 ft 436 kts 259°
2026-05-04 23:23 -13.15435 -39.07232 26739 ft 437 kts 259°
2026-05-04 23:23 -13.16030 -39.10301 27024 ft 439 kts 259°
2026-05-04 23:24 -13.16627 -39.13380 27301 ft 442 kts 258°
2026-05-04 23:24 -13.17032 -39.15474 27542 ft 443 kts 258°
2026-05-04 23:24 -13.17625 -39.18542 27914 ft 443 kts 258°
2026-05-04 23:24 -13.18235 -39.21693 28180 ft 446 kts 258°
2026-05-04 23:25 -13.18840 -39.24826 28438 ft 449 kts 258°
2026-05-04 23:25 -13.19445 -39.27959 28797 ft 449 kts 258°
2026-05-04 23:25 -13.20052 -39.31105 29115 ft 450 kts 258°
2026-05-04 23:25 -13.20662 -39.34268 29319 ft 454 kts 258°
2026-05-04 23:26 -13.21276 -39.37457 29563 ft 456 kts 258°
2026-05-04 23:26 -13.21892 -39.40658 29875 ft 457 kts 258°
2026-05-04 23:26 -13.22509 -39.43864 30129 ft 460 kts 258°
2026-05-04 23:26 -13.23130 -39.47094 30359 ft 462 kts 258°
2026-05-04 23:27 -13.23750 -39.50324 30652 ft 462 kts 258°
2026-05-04 23:27 -13.24371 -39.53558 30938 ft 463 kts 258°
2026-05-04 23:27 -13.24994 -39.56803 31224 ft 463 kts 258°
2026-05-04 23:27 -13.25614 -39.60040 31595 ft 461 kts 258°
2026-05-04 23:28 -13.26231 -39.63260 32004 ft 458 kts 258°
2026-05-04 23:28 -13.26843 -39.66458 32409 ft 456 kts 258°
2026-05-04 23:28 -13.27449 -39.69641 32811 ft 453 kts 259°
2026-05-04 23:28 -13.27818 -39.72842 33257 ft 449 kts 266°
2026-05-04 23:29 -13.27792 -39.76041 33658 ft 448 kts 273°
2026-05-04 23:29 -13.27378 -39.79201 34016 ft 447 kts 280°
2026-05-04 23:29 -13.26648 -39.82298 34315 ft 446 kts 282°
2026-05-04 23:29 -13.25896 -39.85382 34587 ft 444 kts 282°
2026-05-04 23:30 -13.25156 -39.88450 34857 ft 443 kts 282°
2026-05-04 23:30 -13.24428 -39.91479 35119 ft 442 kts 282°
2026-05-04 23:30 -13.23683 -39.94575 35383 ft 440 kts 282°
2026-05-04 23:30 -13.22949 -39.97619 35632 ft 439 kts 282°
2026-05-04 23:31 -13.22217 -40.00649 35877 ft 438 kts 281°
2026-05-04 23:31 -13.21485 -40.03676 36120 ft 436 kts 281°
2026-05-04 23:31 -13.20755 -40.06695 36354 ft 435 kts 281°
2026-05-04 23:31 -13.20026 -40.09709 36503 ft 436 kts 281°
2026-05-04 23:32 -13.19295 -40.12728 36690 ft 435 kts 281°
2026-05-04 23:32 -13.18566 -40.15735 36912 ft 434 kts 281°
2026-05-04 23:32 -13.17838 -40.18736 37124 ft 433 kts 281°
2026-05-04 23:32 -13.17114 -40.21721 37323 ft 432 kts 281°
2026-05-04 23:33 -13.16389 -40.24709 37508 ft 431 kts 281°
2026-05-04 23:33 -13.15665 -40.27689 37718 ft 429 kts 281°
2026-05-04 23:33 -13.14945 -40.30653 37905 ft 428 kts 281°
2026-05-04 23:33 -13.14225 -40.33614 38067 ft 427 kts 281°
2026-05-04 23:34 -13.12779 -40.39562 38129 ft 432 kts 281°
2026-05-04 23:34 -13.11322 -40.45547 38121 ft 438 kts 281°
2026-05-04 23:35 -13.09827 -40.51680 38121 ft 442 kts 281°
2026-05-04 23:35 -13.08337 -40.57782 38115 ft 446 kts 281°
2026-05-04 23:36 -13.06816 -40.64006 38119 ft 448 kts 281°
2026-05-04 23:36 -13.05298 -40.70210 38114 ft 445 kts 281°
2026-05-04 23:37 -13.04565 -40.73194 38116 ft 430 kts 281°
2026-05-04 23:37 -13.03846 -40.76121 38114 ft 418 kts 281°
2026-05-04 23:37 -13.02425 -40.81931 38115 ft 423 kts 281°
2026-05-04 23:38 -13.00984 -40.87815 38117 ft 426 kts 281°
2026-05-04 23:38 -12.99538 -40.93698 38115 ft 424 kts 281°
2026-05-04 23:39 -12.98100 -40.99545 38121 ft 423 kts 281°
2026-05-04 23:39 -12.96659 -41.05402 38123 ft 424 kts 281°
2026-05-04 23:40 -12.95216 -41.11260 38128 ft 423 kts 281°
2026-05-04 23:40 -12.93775 -41.17103 38128 ft 423 kts 281°
2026-05-04 23:41 -12.92334 -41.22940 38129 ft 422 kts 281°
2026-05-04 23:41 -12.90892 -41.28777 38127 ft 422 kts 281°
2026-05-04 23:42 -12.89450 -41.34606 38128 ft 421 kts 282°
2026-05-04 23:42 -12.88000 -41.40462 38132 ft 421 kts 281°
2026-05-04 23:43 -12.86567 -41.46245 38144 ft 422 kts 281°
2026-05-04 23:43 -12.85121 -41.52073 38156 ft 422 kts 281°
2026-05-04 23:44 -12.83673 -41.57904 38159 ft 423 kts 282°
2026-05-04 23:44 -12.82221 -41.63742 38165 ft 423 kts 282°
2026-05-04 23:45 -12.80766 -41.69587 38173 ft 423 kts 282°
2026-05-04 23:45 -12.79310 -41.75433 38174 ft 424 kts 282°
2026-05-04 23:46 -12.77859 -41.81250 38175 ft 424 kts 282°
2026-05-04 23:46 -12.76378 -41.87180 38170 ft 425 kts 282°
2026-05-04 23:47 -12.74910 -41.93055 38175 ft 425 kts 282°
2026-05-04 23:47 -12.73442 -41.98925 38166 ft 425 kts 282°
2026-05-04 23:48 -12.71979 -42.04767 38151 ft 423 kts 282°
2026-05-04 23:48 -12.70514 -42.10611 38153 ft 424 kts 282°
2026-05-04 23:49 -12.69049 -42.16453 38141 ft 423 kts 282°
2026-05-04 23:49 -12.67581 -42.22297 38126 ft 424 kts 282°
2026-05-04 23:50 -12.66114 -42.28133 38129 ft 423 kts 282°
2026-05-04 23:50 -12.64634 -42.34016 38108 ft 423 kts 282°
2026-05-04 23:51 -12.63165 -42.39846 38100 ft 423 kts 282°
2026-05-04 23:51 -12.61697 -42.45667 38085 ft 422 kts 282°
2026-05-04 23:52 -12.60227 -42.51492 38088 ft 422 kts 282°
2026-05-04 23:52 -12.58758 -42.57309 38083 ft 422 kts 282°
2026-05-04 23:53 -12.57285 -42.63135 38077 ft 422 kts 282°
2026-05-04 23:53 -12.55806 -42.68978 38080 ft 422 kts 282°
2026-05-04 23:54 -12.54331 -42.74799 38081 ft 422 kts 282°
2026-05-04 23:54 -12.52855 -42.80623 38076 ft 423 kts 282°
2026-05-04 23:55 -12.51102 -42.86372 38078 ft 425 kts 288°
2026-05-04 23:56 -12.47981 -42.94877 38077 ft 426 kts 288°
2026-05-04 23:56 -12.45895 -43.00596 38088 ft 427 kts 288°
2026-05-04 23:57 -12.43818 -43.06277 38091 ft 427 kts 288°
2026-05-04 23:57 -12.41735 -43.11964 38091 ft 427 kts 288°
2026-05-04 23:58 -12.40000 -43.16699 38098 ft 427 kts 288°
2026-05-04 23:58 -12.37914 -43.22391 38093 ft 427 kts 288°
2026-05-04 23:59 -12.35826 -43.28082 38087 ft 427 kts 288°
2026-05-04 23:59 -12.33738 -43.33768 38071 ft 427 kts 288°
2026-05-05 00:00 -12.31647 -43.39459 38066 ft 427 kts 288°
2026-05-05 00:00 -12.29560 -43.45131 38062 ft 426 kts 288°
2026-05-05 00:01 -12.27476 -43.50798 38059 ft 426 kts 288°
2026-05-05 00:01 -12.25375 -43.56506 38057 ft 430 kts 288°
2026-05-05 00:02 -12.23269 -43.62218 38061 ft 429 kts 288°
2026-05-05 00:02 -12.21162 -43.67933 38073 ft 430 kts 288°
2026-05-05 00:03 -12.19052 -43.73651 38082 ft 430 kts 288°
2026-05-05 00:03 -12.16941 -43.79366 38073 ft 429 kts 288°
2026-05-05 00:04 -12.14832 -43.85072 38051 ft 429 kts 288°
2026-05-05 00:04 -12.12724 -43.90774 38050 ft 429 kts 288°
2026-05-05 00:05 -12.10612 -43.96480 38053 ft 429 kts 288°
2026-05-05 00:05 -12.08499 -44.02184 38055 ft 429 kts 288°
2026-05-05 00:06 -12.06387 -44.07884 38060 ft 429 kts 288°
2026-05-05 00:06 -12.04271 -44.13589 38058 ft 429 kts 288°
2026-05-05 00:07 -12.02153 -44.19295 38064 ft 430 kts 288°
2026-05-05 00:07 -12.00032 -44.25009 38061 ft 430 kts 288°
2026-05-05 00:08 -11.97906 -44.30728 38065 ft 431 kts 288°
2026-05-05 00:08 -11.95780 -44.36445 38062 ft 431 kts 288°
2026-05-05 00:09 -11.93648 -44.42172 38063 ft 432 kts 288°
2026-05-05 00:09 -11.91513 -44.47907 38060 ft 432 kts 288°
2026-05-05 00:10 -11.89378 -44.53634 38068 ft 432 kts 288°
2026-05-05 00:10 -11.87238 -44.59372 38068 ft 432 kts 288°
2026-05-05 00:11 -11.85100 -44.65100 38066 ft 432 kts 288°
2026-05-05 00:11 -11.82948 -44.70861 38068 ft 432 kts 288°
2026-05-05 00:12 -11.80808 -44.76589 38068 ft 432 kts 288°
2026-05-05 00:12 -11.78666 -44.82315 38061 ft 432 kts 289°
2026-05-05 00:13 -11.76523 -44.88042 38065 ft 432 kts 289°
2026-05-05 00:13 -11.74378 -44.93769 38069 ft 432 kts 289°
2026-05-05 00:14 -11.72233 -44.99493 38069 ft 432 kts 289°
2026-05-05 00:14 -11.70086 -45.05220 38041 ft 433 kts 289°
2026-05-05 00:15 -11.67930 -45.10965 38051 ft 434 kts 289°
2026-05-05 00:15 -11.65772 -45.16709 38064 ft 434 kts 289°
2026-05-05 00:16 -11.63605 -45.22474 38067 ft 435 kts 289°
2026-05-05 00:16 -11.61450 -45.28207 38075 ft 436 kts 289°
2026-05-05 00:17 -11.59260 -45.34026 38087 ft 437 kts 289°
2026-05-05 00:17 -11.57080 -45.39816 38079 ft 436 kts 289°
2026-05-05 00:18 -11.54915 -45.45559 38077 ft 434 kts 289°
2026-05-05 00:18 -11.52736 -45.51342 38078 ft 439 kts 289°
2026-05-05 00:19 -11.50562 -45.57100 38082 ft 437 kts 289°
2026-05-05 00:19 -11.48378 -45.62885 38080 ft 437 kts 289°
2026-05-05 00:20 -11.46154 -45.68700 38079 ft 438 kts 291°
2026-05-05 00:20 -11.43515 -45.74253 38084 ft 439 kts 294°
2026-05-05 00:21 -11.40822 -45.79836 38088 ft 439 kts 294°
2026-05-05 00:21 -11.38128 -45.85428 38093 ft 439 kts 294°
2026-05-05 00:22 -11.35432 -45.91014 38079 ft 439 kts 294°
2026-05-05 00:22 -11.32731 -45.96602 38081 ft 440 kts 294°
2026-05-05 00:23 -11.30030 -46.02186 38085 ft 440 kts 294°
2026-05-05 00:23 -11.27325 -46.07778 38082 ft 440 kts 294°
2026-05-05 00:24 -11.24616 -46.13374 38088 ft 441 kts 294°
2026-05-05 00:24 -11.21903 -46.18974 38090 ft 441 kts 294°
2026-05-05 00:25 -11.19186 -46.24580 38092 ft 441 kts 294°
2026-05-05 00:25 -11.16468 -46.30185 38092 ft 441 kts 294°
2026-05-05 00:26 -11.13749 -46.35787 38089 ft 441 kts 294°
2026-05-05 00:26 -11.11029 -46.41389 38081 ft 441 kts 294°
2026-05-05 00:27 -11.08310 -46.46988 38080 ft 441 kts 294°
2026-05-05 00:27 -11.05589 -46.52585 38075 ft 441 kts 294°
2026-05-05 00:28 -11.02867 -46.58182 38071 ft 441 kts 294°
2026-05-05 00:28 -11.00147 -46.63773 37771 ft 440 kts 294°
2026-05-05 00:28 -10.98786 -46.66566 37515 ft 440 kts 294°
2026-05-05 00:29 -10.97424 -46.69364 37247 ft 442 kts 294°
2026-05-05 00:29 -10.96055 -46.72175 36997 ft 444 kts 294°
2026-05-05 00:29 -10.94684 -46.74988 36748 ft 445 kts 294°
2026-05-05 00:29 -10.93308 -46.77811 36506 ft 446 kts 293°
2026-05-05 00:30 -10.91930 -46.80637 36261 ft 446 kts 293°
2026-05-05 00:30 -10.90548 -46.83471 36012 ft 447 kts 293°
2026-05-05 00:30 -10.89162 -46.86309 35775 ft 448 kts 293°
2026-05-05 00:30 -10.87777 -46.89145 35545 ft 449 kts 293°
2026-05-05 00:31 -10.86382 -46.92002 35311 ft 450 kts 293°
2026-05-05 00:31 -10.84990 -46.94852 35075 ft 451 kts 293°
2026-05-05 00:31 -10.83592 -46.97716 34843 ft 452 kts 293°
2026-05-05 00:31 -10.82191 -47.00583 34595 ft 453 kts 292°
2026-05-05 00:32 -10.80787 -47.03456 34026 ft 457 kts 292°
2026-05-05 00:32 -10.79366 -47.06368 33054 ft 463 kts 293°
2026-05-05 00:32 -10.77926 -47.09321 32230 ft 465 kts 293°
2026-05-05 00:32 -10.76485 -47.12270 31386 ft 468 kts 294°
2026-05-05 00:33 -10.75044 -47.15215 30872 ft 462 kts 294°
2026-05-05 00:33 -10.73615 -47.18135 30252 ft 460 kts 294°
2026-05-05 00:33 -10.72197 -47.21035 29661 ft 455 kts 294°
2026-05-05 00:33 -10.70797 -47.23896 29089 ft 450 kts 295°
2026-05-05 00:34 -10.69410 -47.26730 28519 ft 445 kts 295°
2026-05-05 00:34 -10.68036 -47.29536 27956 ft 441 kts 295°
2026-05-05 00:34 -10.66677 -47.32312 27398 ft 437 kts 295°
2026-05-05 00:34 -10.65329 -47.35066 26833 ft 433 kts 295°
2026-05-05 00:35 -10.63992 -47.37796 26267 ft 431 kts 296°
2026-05-05 00:35 -10.62663 -47.40508 25688 ft 428 kts 296°
2026-05-05 00:35 -10.61340 -47.43209 25164 ft 425 kts 296°
2026-05-05 00:35 -10.60025 -47.45892 24625 ft 422 kts 296°
2026-05-05 00:36 -10.58715 -47.48563 24082 ft 421 kts 296°
2026-05-05 00:36 -10.57409 -47.51224 23503 ft 419 kts 297°
2026-05-05 00:36 -10.56112 -47.53868 22905 ft 417 kts 297°
2026-05-05 00:36 -10.54825 -47.56487 22381 ft 412 kts 297°
2026-05-05 00:37 -10.53963 -47.58243 22014 ft 410 kts 297°
2026-05-05 00:37 -10.52693 -47.60827 21469 ft 407 kts 297°
2026-05-05 00:37 -10.51434 -47.63388 20932 ft 404 kts 297°
2026-05-05 00:37 -10.49772 -47.66768 20206 ft 402 kts 297°
2026-05-05 00:38 -10.48930 -47.68480 19802 ft 402 kts 297°
2026-05-05 00:38 -10.47686 -47.71011 19291 ft 399 kts 297°
2026-05-05 00:38 -10.46444 -47.73536 18768 ft 398 kts 297°
2026-05-05 00:38 -10.45205 -47.76054 18200 ft 398 kts 297°
2026-05-05 00:39 -10.43971 -47.78561 17629 ft 395 kts 297°
2026-05-05 00:39 -10.42748 -47.81047 17103 ft 392 kts 297°
2026-05-05 00:39 -10.41531 -47.83519 16561 ft 390 kts 297°
2026-05-05 00:39 -10.40321 -47.85976 16028 ft 387 kts 297°
2026-05-05 00:40 -10.39120 -47.88415 15495 ft 385 kts 297°
2026-05-05 00:40 -10.37923 -47.90844 14976 ft 383 kts 297°
2026-05-05 00:40 -10.36733 -47.93256 14450 ft 381 kts 297°
2026-05-05 00:40 -10.35547 -47.95663 13917 ft 379 kts 298°
2026-05-05 00:41 -10.34368 -47.98054 13338 ft 377 kts 298°
2026-05-05 00:41 -10.33203 -48.00414 12858 ft 372 kts 297°
2026-05-05 00:41 -10.32047 -48.02755 12354 ft 369 kts 297°
2026-05-05 00:41 -10.30904 -48.05067 11848 ft 365 kts 297°
2026-05-05 00:42 -10.29767 -48.07366 11347 ft 362 kts 297°
2026-05-05 00:42 -10.28642 -48.09642 10851 ft 359 kts 297°
2026-05-05 00:42 -10.27524 -48.11905 10349 ft 357 kts 297°
2026-05-05 00:42 -10.26433 -48.14112 10199 ft 343 kts 297°
2026-05-05 00:43 -10.25385 -48.16233 10074 ft 329 kts 297°
2026-05-05 00:43 -10.24379 -48.18267 9961 ft 316 kts 296°
2026-05-05 00:43 -10.23415 -48.20219 9796 ft 305 kts 296°
2026-05-05 00:43 -10.22468 -48.22135 9263 ft 302 kts 296°
2026-05-05 00:44 -10.21540 -48.24014 8942 ft 295 kts 296°
2026-05-05 00:44 -10.20625 -48.25865 8585 ft 292 kts 296°
2026-05-05 00:44 -10.19716 -48.27704 8225 ft 290 kts 296°
2026-05-05 00:44 -10.18815 -48.29525 7870 ft 288 kts 297°
2026-05-05 00:45 -10.17919 -48.31339 7510 ft 287 kts 297°
2026-05-05 00:45 -10.17014 -48.33170 7141 ft 286 kts 297°
2026-05-05 00:45 -10.16135 -48.34948 6788 ft 285 kts 297°
2026-05-05 00:45 -10.15246 -48.36745 6428 ft 285 kts 297°
2026-05-05 00:46 -10.14357 -48.38542 6045 ft 285 kts 297°
2026-05-05 00:46 -10.13471 -48.40331 5675 ft 281 kts 297°
2026-05-05 00:46 -10.12597 -48.42097 5321 ft 279 kts 297°
2026-05-05 00:46 -10.11724 -48.43859 4962 ft 279 kts 297°
2026-05-05 00:47 -10.11087 -48.45710 4558 ft 280 kts 276°
2026-05-05 00:47 -10.11297 -48.47646 4183 ft 276 kts 246°
2026-05-05 00:47 -10.12332 -48.49238 3843 ft 267 kts 218°
2026-05-05 00:47 -10.13907 -48.50105 3638 ft 252 kts 190°
2026-05-05 00:48 -10.15678 -48.50394 3566 ft 263 kts 182°
2026-05-05 00:48 -10.17461 -48.50574 3532 ft 251 kts 178°
2026-05-05 00:48 -10.19082 -48.50256 3474 ft 229 kts 149°
2026-05-05 00:48 -10.20231 -48.49274 3418 ft 208 kts 122°
2026-05-05 00:49 -10.20988 -48.48088 3403 ft 190 kts 121°
2026-05-05 00:49 -10.21662 -48.47063 3367 ft 160 kts 121°
2026-05-05 00:49 -10.22231 -48.46212 3311 ft 134 kts 121°
2026-05-05 00:49 -10.22752 -48.45430 3265 ft 134 kts 121°
2026-05-05 00:50 -10.23267 -48.44651 3208 ft 133 kts 121°
2026-05-05 00:50 -10.23779 -48.43874 3163 ft 133 kts 121°
2026-05-05 00:50 -10.24293 -48.43075 2825 ft 137 kts 120°
2026-05-05 00:50 -10.24809 -48.42236 2319 ft 143 kts 121°
2026-05-05 00:51 -10.25380 -48.41396 1835 ft 146 kts 124°
2026-05-05 00:51 -10.25943 -48.40568 1573 ft 137 kts 123°
2026-05-05 00:51 -10.26454 -48.39776 1450 ft 137 kts 123°
2026-05-05 00:51 -10.26990 -48.38978 1295 ft 136 kts 124°
2026-05-05 00:52 -10.27510 -48.38179 1134 ft 136 kts 123°
2026-05-05 00:52 -10.28042 -48.37392 908 ft 135 kts 124°
2026-05-05 00:52 -10.28557 -48.36605 763 ft 134 kts 124°
2026-05-05 00:52 -10.29028 -48.35892 746 ft 90 kts 123°
2026-05-05 00:53 -10.29215 -48.35607 752 ft 25 kts 126°
2026-05-05 00:53 -10.29259 -48.35544 756 ft 3 kts 142°
2026-05-05 00:53 -10.29294 -48.35528 758 ft 7 kts 170°
2026-05-05 00:53 -10.29347 -48.35548 757 ft 10 kts 208°
2026-05-05 00:54 -10.29413 -48.35592 758 ft 13 kts 214°
2026-05-05 00:54 -10.29460 -48.35645 759 ft 7 kts 272°
2026-05-05 00:54 -10.29437 -48.35700 758 ft 5 kts 281°
2026-05-05 00:54 -10.29450 -48.35707 756 ft 3 kts 200°
2026-05-05 00:55 -10.29481 -48.35723 758 ft 3 kts 209°
2026-05-05 00:55 -10.29486 -48.35726 754 ft 2 kts 205°
2026-05-05 00:55 -10.29489 -48.35727 755 ft 0 kts 203°